This is the latest recevied weather packets stored in our database for station/object KR4ELZ. If no packets are shown the sender has not sent any weather packets the latest 10 day(s).
| Time | Temp. | Humidity | Pressure | Rain* | Wind** | Luminosity | Snow |
|---|---|---|---|---|---|---|---|
| 1777442154 | 17.22° C | 99% | 1010.8 hPa | 0 mm | - | 0 W/m² | - |
| 1777441850 | 17.22° C | 99% | 1011 hPa | 0 mm | - | 0 W/m² | - |
| 1777441546 | 17.22° C | 99% | 1011.1 hPa | 0 mm | - | 0 W/m² | - |
| 1777441242 | 17.22° C | 99% | 1011.3 hPa | 0 mm | - | 0 W/m² | - |
| 1777440937 | 17.22° C | 99% | 1011.3 hPa | 0 mm | - | 0 W/m² | - |
| 1777440633 | 17.22° C | 99% | 1011.4 hPa | 0 mm | - | 0 W/m² | - |
| 1777440329 | 17.22° C | 99% | 1011.9 hPa | 0 mm | - | 0 W/m² | - |
| 1777440026 | 17.22° C | 99% | 1012.1 hPa | 0 mm | - | 0 W/m² | - |
| 1777439721 | 17.22° C | 99% | 1012.1 hPa | 0 mm | - | 0 W/m² | - |
| 1777439417 | 17.22° C | 99% | 1012 hPa | 0 mm | - | 0 W/m² | - |
| 1777439113 | 17.22° C | 99% | 1012.1 hPa | 0 mm | - | 0 W/m² | - |
| 1777438810 | 17.22° C | 99% | 1012.6 hPa | 1.78 mm | - | 0 W/m² | - |
| 1777438507 | 17.22° C | 99% | 1012.6 hPa | 12.7 mm | - | 0 W/m² | - |
| 1777438203 | 17.22° C | 99% | 1011.4 hPa | 24.64 mm | - | 0 W/m² | - |
| 1777437901 | 17.22° C | 99% | 1012.9 hPa | 26.92 mm | - | 0 W/m² | - |
| 1777437595 | 17.78° C | 99% | 1013.9 hPa | 26.42 mm | - | 0 W/m² | - |
| 1777437292 | 17.78° C | 99% | 1014.4 hPa | 29.46 mm | - | 0 W/m² | - |
| 1777436988 | 17.78° C | 99% | 1014 hPa | 21.59 mm | - | 0 W/m² | - |
| 1777436685 | 17.78° C | 99% | 1014 hPa | 10.16 mm | - | 0 W/m² | - |
| 1777435774 | 18.33° C | 99% | 1013.1 hPa | 8.89 mm | - | 0 W/m² | - |
| 1777435166 | 18.33° C | 99% | 1013.3 hPa | 11.94 mm | - | 0 W/m² | - |
| 1777434861 | 18.33° C | 99% | 1013.1 hPa | 18.54 mm | - | 0 W/m² | - |
| 1777433955 | 18.33° C | 99% | 1012.2 hPa | 16.76 mm | - | 0 W/m² | - |
| 1777433651 | 18.89° C | 99% | 1013.4 hPa | 14.99 mm | - | 0 W/m² | - |
| 1777433347 | 18.89° C | 99% | 1013.7 hPa | 13.72 mm | - | 0 W/m² | - |
* Rain latest hour (hover to see other rain measurements)
** Current wind speed in m/s (hover to see current wind gust speed)